User: anonymous   Login
Location: Fort Wayne
(41.1310°N, 85.1290°W)
Time: 07:35:50
(UTC-04:00)
Language:

OAO 2 Rocket - Orbit

View from above orbital plane
View from above orbital plane
View from above satellite
View from above satellite

Ground track
Ground track

The orbit data is extracted from the following two-line orbital elements,

1 03598U 68110B   15144.84760415  .00000270  00000-0  66634-4 0  9999
2 03598 034.9942 276.1316 0050048 230.5772 129.0484 14.54046915456605
Epoch (UTC): 24 May 2015 20:20:32
Eccentricity: 0.0050048
inclination: 34.9942°
perigee height: 677 km
apogee height: 748 km
right ascension of ascending node: 276.1316°
argument of perigee: 230.5772°
revolutions per day: 14.54046915
mean anomaly at epoch: 129.0484°
orbit number at epoch: 45660

The dashed part of the orbit path shows where the satellite is in the earth's shadow,  

DLR